Location: Helsinki
(60.1699°N, 24.9384°E)
Time: 03:48:22
(UTC+02:00)

ISS - Pass Details

Date: 06 December 2021
Orbit: 413 x 422 km, 51.6° (Epoch: 27 January)

Event Time Altitude Azimuth Distance (km) Brightness Sun altitude
Rises 17:13:57 0° 261° (W) 2,390 1.8 -12.6°
Reaches altitude 10° 17:17:04 10° 230° (SW) 1,519 0.4 -13.0°
Maximum altitude 17:18:31 12° 205° (SSW) 1,384 -0.4 -13.2°
Drops below altitude 10° 17:19:58 10° 179° (S) 1,514 -0.7 -13.3°
Enters shadow 17:24:41 -5° 141° (SE) 2,954 0.4 -13.9°
